This demonstration page uses our WeatherBlox Daily Observations layout. Learn more.

Left ArrowRight Arrow

Hourly Observations for September 13, 2018

Temp ( °F °C ) Dew Point ( °F °C ) Humidity (%) Winds ( mph kmh ) Pressure ( in mb ) Visibility ( mi km ) Precip ( " mm )
12:54 am 00:54 Clear 68 20 62 16.7 81 81 S 13 20 29.98 1015 10 16 N/A
1:54 am 01:54 Clear 67 19.4 63 17.2 87 87 SSE 12 19 29.97 1015 10 16 N/A
2:54 am 02:54 Clear 67 19.4 63 17.2 87 87 SSE 12 19 29.97 1015 10 16 N/A
3:54 am 03:54 Clear 67 19.4 64 17.8 91 91 SSE 10 17 29.96 1015 10 16 N/A
4:54 am 04:54 Clear 66 18.9 64 17.8 93 93 SSE 10 17 29.96 1015 10 16 N/A
5:54 am 05:54 Clear 67 19.4 64 17.8 91 91 SSE 12 19 29.95 1014 10 16 N/A
6:29 am 06:29 Mostly Cloudy 68 20 65 18.3 90 90 S 12 19 29.94 1014 10 16 N/A
6:54 am 06:54 Cloudy 68 20 66 18.9 93 93 S 12 19 29.96 1014 10 16 N/A
7:54 am 07:54 Cloudy 70 21.1 66 18.9 87 87 S 15 24 29.96 1015 9 14 N/A
8:54 am 08:54 Cloudy 71 21.7 67 19.4 87 87 S 13 20 29.97 1015 10 16 N/A
9:10 am 09:10 Cloudy 71 21.7 67 19.4 87 87 S 14 22 29.97 1015 10 16 N/A
9:54 am 09:54 Cloudy 73 22.8 67 19.4 81 81 S 17 28 29.97 1015 10 16 N/A
10:32 am 10:32 Mostly Cloudy 75 23.9 68 20 79 79 S 20 31 29.94 1014 10 16 N/A
10:54 am 10:54 Cloudy 75 23.9 68 20 79 79 S 17 28 29.97 1015 10 16 N/A
11:54 am 11:54 Mostly Cloudy 78 25.6 68 20 71 71 S 21 33 29.94 1014 10 16 N/A
12:54 pm 12:54 Cloudy 79 26.1 69 20.6 72 72 S 20 31 29.94 1014 10 16 N/A
1:49 pm 13:49 Cloudy 81 27 70 21 70 70 S 18 30 29.91 1013 10 16 N/A
1:54 pm 13:54 Cloudy 81 27.2 69 20.6 67 67 S 16 26 29.93 1014 10 16 N/A
2:54 pm 14:54 Mostly Cloudy 83 28.3 69 20.6 63 63 S 22 35 29.92 1013 10 16 N/A
3:54 pm 15:54 Mostly Cloudy 82 27.8 68 20 63 63 S 21 33 29.91 1013 10 16 N/A
4:54 pm 16:54 Partly Cloudy 83 28.3 68 20 61 61 S 18 30 29.91 1013 10 16 N/A
5:54 pm 17:54 Partly Cloudy 82 27.8 67 19.4 60 60 S 20 31 29.90 1013 10 16 N/A
6:54 pm 18:54 Mostly Cloudy 81 27.2 67 19.4 62 62 S 17 28 29.90 1013 10 16 N/A
7:54 pm 19:54 Mostly Cloudy 78 25.6 67 19.4 69 69 SSE 12 19 29.91 1013 10 16 N/A
8:54 pm 20:54 Clear 74 23.3 67 19.4 79 79 S 8 13 29.94 1014 10 16 N/A
9:54 pm 21:54 Clear 74 23.3 67 19.4 79 79 SSE 13 20 29.96 1014 10 16 N/A
10:54 pm 22:54 Clear 73 22.8 69 20.6 87 87 SSE 13 20 29.96 1015 10 16 N/A
11:54 pm 23:54 Clear 71 21.7 68 20 90 90 S 13 20 29.96 1015 10 16 N/A

Powered by AerisWeather